STARLINK-32467, 61713

Orbit data source: Space-Track

STARLINK-32467, 61713 is a payload satellite owned by SpaceX/Seattle (US) in LEO that was launched on Wed, 30 Oct 2024 UTC via an FALCON 9 launch vehicle from the Air Force Eastern Test Range (AFETR). Payload-class satellites include a variety of spacecraft equipped with specific instruments for various scientific and technological missions. These include communications satellites like Starlink; space stations such as the ISS; scientific satellites like the Hubble; Earth observation satellites from companies like Planet Labs, Umbra, and HawkEye 360; GPS; miniature CubeSats for education and research; and military/defense satellites.

Loading next visibility...
Identifier
61713, 2024-196G
Orbit
LEO
Last TLE update
10 hours ago
Origin
Manufacturer
SpaceX/Seattle
Mission
Operational Commercial Communications
Bus & Motor
STARLINK V2M, Unknown motor
Mass
730 kg wet, ~700 kg dry
Launch date (UTC)
2024-10-30 (6 months ago)
Launch vehicle
FALCON 9
Launch site
Air Force Eastern Test Range (AFETR)
Object type
Payload
Rocket body
Debris
Shape & HBR
Box + 2 Pan, 29 m
Radar Cross Section
36.964 m², Large (>1 m²)

Expand to show TLE details & history

TLE from 10 hours ago
0 STARLINK-32467
1 61713U 24196G   25129.26920180  .00002067  00000-0  81888-4 0  9999
2 61713  53.1604  75.6859 0001281  95.3361 264.7786 15.30204705 30323
Epoch: 2025-05-09T06:27Z
Definitive object data (Epoch: 2025-05-09T06:27:39.035Z)
Latitude
-0.00002°
Longitude
111.44547°
Altitude
476.181 km
Speed
7.629 km/s
True Right ascension
05h 02m 44s
True Declination
0° 00' 00"
Sunlit
Object was in daylight at TLE epoch
Visualization TLE readout
Latitude
9.24617°
Longitude
-77.48341°
Altitude
475.091 km
Speed
7.63 km/s
Apparent Right ascension
14h 55m 49s
Apparent Declination
-16° 00' 30"
Sunlit
Object is in full shadow
Visualization observer readout
Local Sidereal Time
00:46:25
Azimuth
301.039° NW
Elevation
-53.108°
Doppler factor
1
Orbital elements
Apogee altitude
476.335 km
Perigee altitude
474.579 km
Semi-major axis
6,853.594 km
Eccentricity
0.0001281
Inclination
53.1604°
RAAN
75.6859°
Arg. of periapsis
95.3361°
True anomaly
264.76398°
Mean anomaly
264.7786°
Eccentric anomaly
264.77129°
Mean motion
3.8253 °/min
BSTAR
0.000081888
Orbital period
94.11 mins
Loading maneuver chart data...
Loading SW <> Apogee altitude chart data...
Loading historical data...
Loading historical data...
Loading historical data...
Loading historical data...
Loading historical data...
Loading historical data...
Loading historical data...

STARLINK-32467 Visibility forecast

Observer location: undefined°, undefined°

Span
Click to sort rows by Start time (UTC) header in descending order
Start Az.
Max El. time (UTC)
Max El. Az.
Max El.
End time (UTC)
End Az.
5 mins2025-05-09 22:17:55.457Z180.587° SSW2025-05-09 22:19:55.457Z137.765° SSE24.175°2025-05-09 22:22:55.457Z75.325° E
5 mins2025-05-09 23:55:55.457Z270.922° WNW2025-05-09 23:57:55.457Z326.424° NNW30.925°2025-05-10 00:00:55.457Z33.603° NE
5 mins2025-05-10 04:52:55.457Z341.854° N2025-05-10 04:54:55.457Z31.079° NE25.346°2025-05-10 04:57:55.457Z89.481° E
5 mins2025-05-10 06:30:55.457Z283.119° WNW2025-05-10 06:32:55.457Z222.619° SW32.295°2025-05-10 06:35:55.457Z158.625° S
|